Time,TemperatureF,DewpointF,PressureIn,WindDirection,WindDirectionDegrees,WindSpeedMPH,WindSpeedGustMPH,Humidity,HourlyPrecipIn,Conditions,Clouds,dailyrainin,SolarRadiationWatts/m^2,SoftwareType,DateUTC
2013-04-08 00:00:00,44.2,35.1,29.92,SW,223,3.4,4.6,70,0.00,SCT,BKN,0.00,0.0,WeatherDisplay:10.37,2013-04-08 04:00:00,
2013-04-08 00:04:00,44.2,35.1,29.92,WNW,296,4.1,4.9,70,0.00,BKN,,0.00,0.0,WeatherDisplay:10.37,2013-04-08 04:04:00,
2013-04-08 00:09:00,44.2,35.1,29.92,WNW,303,3.5,6.3,70,0.00,BKN,,0.00,0.0,WeatherDisplay:10.37,2013-04-08 04:09:00,
2013-04-08 00:14:00,44.1,35.3,29.92,West,281,3.3,4.6,71,0.00,BKN,,0.00,0.0,WeatherDisplay:10.37,2013-04-08 04:14:00,
2013-04-08 00:20:00,44.4,35.6,29.92,NW,309,3.5,4.6,71,0.00,BKN,,0.00,0.0,WeatherDisplay:10.37,2013-04-08 04:20:00,
2013-04-08 00:25:00,44.2,35.4,29.92,West,280,2.1,4.6,71,0.00,BKN,,0.00,0.0,WeatherDisplay:10.37,2013-04-08 04:25:00,
2013-04-08 00:30:00,44.2,35.4,29.92,WNW,294,3.2,4.6,71,0.00,BKN,,0.00,0.0,WeatherDisplay:10.37,2013-04-08 04:30:00,
2013-04-08 00:35:00,44.1,35.3,29.93,WNW,292,3.3,4.9,71,0.00,BKN,,0.00,0.0,WeatherDisplay:10.37,2013-04-08 04:35:00,
2013-04-08 00:40:00,44.1,35.3,29.93,NW,304,3.2,4.6,71,0.00,BKN,,0.00,0.0,WeatherDisplay:10.37,2013-04-08 04:40:00,
2013-04-08 00:45:00,44.4,36.0,29.93,NW,306,2.3,3.5,72,0.00,BKN,,0.00,0.0,WeatherDisplay:10.37,2013-04-08 04:45:00,
2013-04-08 00:50:00,44.2,35.8,29.93,NW,307,1.3,3.5,72,0.00,BKN,,0.00,0.0,WeatherDisplay:10.37,2013-04-08 04:50:00,
2013-04-08 00:55:00,44.1,34.9,29.93,WNW,300,2.2,5.2,70,0.00,BKN,,0.00,0.0,WeatherDisplay:10.37,2013-04-08 04:55:00,
2013-04-08 01:00:00,44.2,35.4,29.93,NW,305,4.2,5.8,71,0.00,BKN,,0.00,0.0,WeatherDisplay:10.37,2013-04-08 05:00:00,
2013-04-08 01:05:00,44.2,35.4,29.93,NW,326,0.8,2.3,71,0.00,OVC,BKN,0.00,0.0,WeatherDisplay:10.37,2013-04-08 05:05:00,
2013-04-08 01:10:00,44.1,35.3,29.93,NW,310,1.2,2.3,71,0.00,OVC,BKN,0.00,0.0,WeatherDisplay:10.37,2013-04-08 05:10:00,
2013-04-08 01:15:00,43.9,35.4,29.93,NW,323,3.3,4.6,72,0.00,OVC,BKN,0.00,0.0,WeatherDisplay:10.37,2013-04-08 05:15:00,
2013-04-08 01:20:00,43.5,35.1,29.93,NW,322,3.8,5.8,72,0.00,OVC,BKN,0.00,0.0,WeatherDisplay:10.37,2013-04-08 05:20:00,
2013-04-08 01:25:00,43.2,34.7,29.93,NW,315,3.2,5.8,72,0.00,OVC,BKN,0.00,0.0,WeatherDisplay:10.37,2013-04-08 05:25:00,
2013-04-08 01:30:00,42.8,34.4,29.93,WNW,289,3.0,4.6,72,0.00,OVC,BKN,0.00,0.0,WeatherDisplay:10.37,2013-04-08 05:30:00,
2013-04-08 01:35:00,42.4,34.0,29.93,WNW,297,2.8,4.1,72,0.00,OVC,BKN,0.00,0.0,WeatherDisplay:10.37,2013-04-08 05:35:00,
2013-04-08 01:40:00,42.3,33.9,29.92,NW,304,2.3,3.5,72,0.00,OVC,BKN,0.00,0.0,WeatherDisplay:10.37,2013-04-08 05:40:00,
2013-04-08 01:45:00,42.1,34.0,29.93,NW,310,2.3,3.5,73,0.00,OVC,BKN,0.00,0.0,WeatherDisplay:10.37,2013-04-08 05:45:00,
2013-04-08 01:50:00,41.9,33.9,29.93,NW,316,0.8,2.3,73,0.00,OVC,BKN,0.00,0.0,WeatherDisplay:10.37,2013-04-08 05:50:00,
2013-04-08 01:55:00,41.5,33.5,29.93,WNW,292,1.1,2.1,73,0.00,OVC,BKN,0.00,0.0,WeatherDisplay:10.37,2013-04-08 05:55:00,
2013-04-08 02:00:00,41.7,34.0,29.93,WNW,299,1.1,3.5,74,0.00,OVC,BKN,0.00,0.0,WeatherDisplay:10.37,2013-04-08 06:00:00,
2013-04-08 02:06:00,41.5,33.9,29.93,WNW,288,0.5,3.5,74,0.00,BKN,,0.00,0.0,WeatherDisplay:10.37,2013-04-08 06:06:00,
2013-04-08 02:11:00,41.7,34.0,29.93,WNW,300,1.0,2.1,74,0.00,BKN,,0.00,0.0,WeatherDisplay:10.37,2013-04-08 06:11:00,
2013-04-08 02:16:00,41.7,34.0,29.93,WNW,283,0.5,0.0,74,0.00,BKN,,0.00,0.0,WeatherDisplay:10.37,2013-04-08 06:16:00,
2013-04-08 02:21:00,42.1,34.4,29.93,West,275,0.1,2.3,74,0.00,BKN,,0.00,0.0,WeatherDisplay:10.37,2013-04-08 06:21:00,
2013-04-08 02:26:00,42.1,34.4,29.93,West,267,0.1,1.1,74,0.00,BKN,,0.00,0.0,WeatherDisplay:10.37,2013-04-08 06:26:00,
2013-04-08 02:31:00,42.4,34.7,29.93,West,268,0.0,0.0,74,0.00,BKN,,0.00,0.0,WeatherDisplay:10.37,2013-04-08 06:31:00,
2013-04-08 02:36:00,42.4,35.1,29.93,WNW,286,0.0,1.1,75,0.00,BKN,,0.00,0.0,WeatherDisplay:10.37,2013-04-08 06:36:00,
2013-04-08 02:41:00,42.6,34.9,29.93,WNW,298,0.0,0.0,74,0.00,BKN,,0.00,0.0,WeatherDisplay:10.37,2013-04-08 06:41:00,
2013-04-08 02:46:00,42.6,34.9,29.93,WNW,289,1.1,3.5,74,0.00,BKN,,0.00,0.0,WeatherDisplay:10.37,2013-04-08 06:46:00,
2013-04-08 02:51:00,42.4,34.7,29.93,WNW,289,0.9,2.3,74,0.00,BKN,,0.00,0.0,WeatherDisplay:10.37,2013-04-08 06:51:00,
2013-04-08 02:56:00,42.4,34.7,29.93,NW,305,0.0,1.1,74,0.00,BKN,,0.00,0.0,WeatherDisplay:10.37,2013-04-08 06:56:00,
2013-04-08 03:01:00,42.4,34.7,29.93,NNW,335,0.0,1.3,74,0.00,OVC,BKN,0.00,0.0,WeatherDisplay:10.37,2013-04-08 07:01:00,
2013-04-08 03:06:00,42.3,34.6,29.93,NW,307,0.9,2.3,74,0.00,OVC,BKN,0.00,0.0,WeatherDisplay:10.37,2013-04-08 07:06:00,
2013-04-08 03:11:00,42.3,34.6,29.93,NW,304,0.6,1.7,74,0.00,OVC,BKN,0.00,0.0,WeatherDisplay:10.37,2013-04-08 07:11:00,
2013-04-08 03:16:00,42.4,34.7,29.94,WNW,286,0.0,1.0,74,0.00,OVC,BKN,0.00,0.0,WeatherDisplay:10.37,2013-04-08 07:16:00,
2013-04-08 03:21:00,42.3,34.6,29.94,WNW,302,0.4,1.3,74,0.00,OVC,BKN,0.00,0.0,WeatherDisplay:10.37,2013-04-08 07:21:00,
2013-04-08 03:26:00,42.4,34.7,29.93,NW,315,1.6,4.3,74,0.00,OVC,BKN,0.00,0.0,WeatherDisplay:10.37,2013-04-08 07:26:00,
2013-04-08 03:31:00,42.4,34.7,29.93,NW,312,0.0,1.1,74,0.00,OVC,BKN,0.00,0.0,WeatherDisplay:10.37,2013-04-08 07:31:00,
2013-04-08 03:36:00,42.4,34.7,29.93,NW,310,0.0,0.0,74,0.00,OVC,BKN,0.00,0.0,WeatherDisplay:10.37,2013-04-08 07:36:00,
2013-04-08 03:41:00,42.4,34.7,29.93,WNW,299,0.0,0.0,74,0.00,OVC,BKN,0.00,0.0,WeatherDisplay:10.37,2013-04-08 07:41:00,
2013-04-08 03:47:00,42.4,34.7,29.93,WNW,299,0.0,0.0,74,0.00,OVC,BKN,0.00,0.0,WeatherDisplay:10.37,2013-04-08 07:47:00,
2013-04-08 03:52:00,42.4,34.7,29.93,WNW,302,0.0,0.0,74,0.00,OVC,BKN,0.00,0.0,WeatherDisplay:10.37,2013-04-08 07:52:00,
2013-04-08 03:57:00,42.4,34.7,29.93,WNW,302,0.0,1.1,74,0.00,OVC,BKN,0.00,0.0,WeatherDisplay:10.37,2013-04-08 07:57:00,
2013-04-08 04:02:00,42.4,34.7,29.94,WNW,302,0.0,0.0,74,0.00,BKN,,0.00,0.0,WeatherDisplay:10.37,2013-04-08 08:02:00,
2013-04-08 04:07:00,42.4,34.7,29.94,WNW,301,0.0,0.0,74,0.00,BKN,,0.00,0.0,WeatherDisplay:10.37,2013-04-08 08:07:00,
2013-04-08 04:12:00,42.4,34.7,29.94,WNW,299,0.0,0.0,74,0.00,BKN,,0.00,0.0,WeatherDisplay:10.37,2013-04-08 08:12:00,
2013-04-08 04:17:00,42.4,34.7,29.93,NW,313,0.0,0.0,74,0.00,BKN,,0.00,0.0,WeatherDisplay:10.37,2013-04-08 08:17:00,
2013-04-08 04:22:00,42.4,34.7,29.93,WNW,300,0.0,0.0,74,0.00,BKN,,0.00,0.0,WeatherDisplay:10.37,2013-04-08 08:22:00,
2013-04-08 04:27:00,42.4,34.7,29.93,WNW,300,0.0,0.0,74,0.00,BKN,,0.00,0.0,WeatherDisplay:10.37,2013-04-08 08:27:00,
2013-04-08 04:32:00,42.4,34.7,29.93,NW,309,0.0,0.0,74,0.00,BKN,,0.00,0.0,WeatherDisplay:10.37,2013-04-08 08:32:00,
2013-04-08 04:37:00,42.4,34.4,29.93,NW,309,0.0,0.0,73,0.00,BKN,,0.00,0.0,WeatherDisplay:10.37,2013-04-08 08:37:00,
2013-04-08 04:42:00,42.4,34.4,29.94,WNW,296,0.0,0.0,73,0.00,BKN,,0.00,0.0,WeatherDisplay:10.37,2013-04-08 08:42:00,
2013-04-08 04:47:00,42.3,34.2,29.95,WNW,299,0.2,2.3,73,0.00,BKN,,0.00,0.0,WeatherDisplay:10.37,2013-04-08 08:47:00,
2013-04-08 04:52:00,42.4,34.4,29.94,WNW,299,0.0,0.0,73,0.00,BKN,,0.00,0.0,WeatherDisplay:10.37,2013-04-08 08:52:00,
2013-04-08 04:57:00,42.3,34.2,29.95,West,280,0.0,1.1,73,0.00,BKN,,0.00,0.0,WeatherDisplay:10.37,2013-04-08 08:57:00,
2013-04-08 05:02:00,42.3,34.2,29.95,WNW,300,0.0,0.0,73,0.00,BKN,,0.00,0.0,WeatherDisplay:10.37,2013-04-08 09:02:00,
2013-04-08 05:07:00,42.3,34.2,29.95,WNW,300,0.0,0.0,73,0.00,BKN,,0.00,0.0,WeatherDisplay:10.37,2013-04-08 09:07:00,
2013-04-08 05:12:00,42.3,34.2,29.95,WNW,299,0.0,0.0,73,0.00,BKN,,0.00,0.0,WeatherDisplay:10.37,2013-04-08 09:12:00,
2013-04-08 05:17:00,42.1,34.0,29.95,WNW,288,0.2,1.1,73,0.00,BKN,,0.00,0.0,WeatherDisplay:10.37,2013-04-08 09:17:00,
2013-04-08 05:22:00,42.4,34.4,29.95,WNW,286,0.0,0.0,73,0.00,BKN,,0.00,0.0,WeatherDisplay:10.37,2013-04-08 09:22:00,
2013-04-08 05:27:00,42.4,34.0,29.95,NW,306,0.0,0.0,72,0.00,BKN,,0.00,0.0,WeatherDisplay:10.37,2013-04-08 09:27:00,
2013-04-08 05:32:00,42.4,34.0,29.95,NW,306,0.0,0.0,72,0.00,BKN,,0.00,0.0,WeatherDisplay:10.37,2013-04-08 09:32:00,
2013-04-08 05:37:00,42.4,34.4,29.95,NW,306,0.0,0.0,73,0.00,BKN,,0.00,0.0,WeatherDisplay:10.37,2013-04-08 09:37:00,
2013-04-08 05:42:00,42.4,34.0,29.95,NW,306,0.0,0.0,72,0.00,BKN,,0.00,0.0,WeatherDisplay:10.37,2013-04-08 09:42:00,
2013-04-08 05:47:00,42.4,34.4,29.95,NNW,335,0.0,0.0,73,0.00,BKN,,0.00,0.0,WeatherDisplay:10.37,2013-04-08 09:47:00,
2013-04-08 05:52:00,42.3,34.2,29.94,NNW,335,0.0,0.0,73,0.00,BKN,,0.00,0.0,WeatherDisplay:10.37,2013-04-08 09:52:00,
2013-04-08 05:57:00,42.3,33.9,29.94,NNE,12,0.0,0.0,72,0.00,BKN,,0.00,0.0,WeatherDisplay:10.37,2013-04-08 09:57:00,
2013-04-08 06:02:00,42.1,34.0,29.95,NNE,12,0.0,0.0,73,0.00,SCT,BKN,0.00,0.0,WeatherDisplay:10.37,2013-04-08 10:02:00,
2013-04-08 06:07:00,42.1,34.0,29.94,NNE,12,0.0,0.0,73,0.00,SCT,BKN,0.00,0.0,WeatherDisplay:10.37,2013-04-08 10:07:00,
2013-04-08 06:12:00,42.1,34.0,29.94,NNE,12,0.0,0.0,73,0.00,SCT,BKN,0.00,0.0,WeatherDisplay:10.37,2013-04-08 10:12:00,
2013-04-08 06:17:00,42.1,34.0,29.95,NNE,12,0.0,0.0,73,0.00,SCT,BKN,0.00,0.0,WeatherDisplay:10.37,2013-04-08 10:17:00,
2013-04-08 06:22:00,42.3,34.2,29.95,NNE,12,0.0,0.0,73,0.00,SCT,BKN,0.00,0.0,WeatherDisplay:10.37,2013-04-08 10:22:00,
2013-04-08 06:27:00,42.1,34.0,29.95,NE,48,0.0,0.0,73,0.00,SCT,BKN,0.00,0.0,WeatherDisplay:10.37,2013-04-08 10:27:00,
2013-04-08 06:32:00,42.1,34.0,29.95,ENE,73,0.1,1.0,73,0.00,SCT,BKN,0.00,0.0,WeatherDisplay:10.37,2013-04-08 10:32:00,
2013-04-08 06:37:00,42.1,34.4,29.95,ESE,119,0.4,1.1,74,0.00,SCT,BKN,0.00,0.0,WeatherDisplay:10.37,2013-04-08 10:37:00,
2013-04-08 06:42:00,42.1,34.4,29.95,SE,133,0.0,0.0,74,0.00,SCT,BKN,0.00,0.0,WeatherDisplay:10.37,2013-04-08 10:42:00,
2013-04-08 06:47:00,42.1,34.4,29.96,SE,133,0.0,0.0,74,0.00,SCT,BKN,0.00,0.0,WeatherDisplay:10.37,2013-04-08 10:47:00,
2013-04-08 06:52:00,42.3,34.6,29.96,SE,133,0.0,0.0,74,0.00,SCT,BKN,0.00,0.0,WeatherDisplay:10.37,2013-04-08 10:52:00,
2013-04-08 06:57:00,42.4,34.7,29.95,SE,133,0.0,0.0,74,0.00,SCT,BKN,0.00,0.0,WeatherDisplay:10.37,2013-04-08 10:57:00,
2013-04-08 07:02:00,42.4,34.7,29.96,SE,133,0.0,0.0,74,0.00,SCT,BKN,0.00,0.0,WeatherDisplay:10.37,2013-04-08 11:02:00,
2013-04-08 07:07:00,42.4,34.7,29.96,SE,133,0.0,0.0,74,0.00,SCT,BKN,0.00,0.0,WeatherDisplay:10.37,2013-04-08 11:07:00,
2013-04-08 07:12:00,42.4,34.7,29.97,SE,133,0.0,0.0,74,0.00,SCT,BKN,0.00,0.0,WeatherDisplay:10.37,2013-04-08 11:12:00,
2013-04-08 07:17:00,42.6,34.9,29.98,SE,133,0.0,0.0,74,0.00,SCT,BKN,0.00,0.0,WeatherDisplay:10.37,2013-04-08 11:17:00,
2013-04-08 07:23:00,42.6,34.9,29.97,SE,133,0.0,0.0,74,0.00,SCT,BKN,0.00,0.0,WeatherDisplay:10.37,2013-04-08 11:23:00,
2013-04-08 07:28:00,42.6,34.9,29.98,ENE,64,0.0,0.0,74,0.00,SCT,BKN,0.00,0.0,WeatherDisplay:10.37,2013-04-08 11:28:00,
2013-04-08 07:33:00,43.0,35.6,29.98,ENE,64,0.0,0.0,75,0.00,SCT,BKN,0.00,0.0,WeatherDisplay:10.37,2013-04-08 11:33:00,
2013-04-08 07:38:00,43.0,35.6,29.98,SE,134,0.4,1.1,75,0.00,SCT,BKN,0.00,0.0,WeatherDisplay:10.37,2013-04-08 11:38:00,
2013-04-08 07:43:00,43.3,35.9,29.98,ENE,62,0.0,0.0,75,0.00,SCT,BKN,0.00,0.0,WeatherDisplay:10.37,2013-04-08 11:43:00,
2013-04-08 07:48:00,43.5,35.8,29.99,NE,35,0.4,1.1,74,0.00,SCT,BKN,0.00,71.5,WeatherDisplay:10.37,2013-04-08 11:48:00,
2013-04-08 07:53:00,43.5,35.1,29.99,SE,139,0.5,2.3,72,0.00,SCT,BKN,0.00,89.4,WeatherDisplay:10.37,2013-04-08 11:53:00,
2013-04-08 07:58:00,43.9,35.4,29.99,NNE,21,0.0,0.0,72,0.00,SCT,BKN,0.00,71.5,WeatherDisplay:10.37,2013-04-08 11:58:00,
2013-04-08 08:03:00,44.2,35.1,29.98,ENE,60,0.4,2.3,70,0.00,BKN,,0.00,80.0,WeatherDisplay:10.37,2013-04-08 12:03:00,
2013-04-08 08:08:00,44.1,34.5,29.99,NE,40,1.7,2.5,69,0.00,BKN,,0.00,108.4,WeatherDisplay:10.37,2013-04-08 12:08:00,
2013-04-08 08:13:00,44.2,35.1,29.98,NE,38,2.0,3.5,70,0.00,BKN,,0.00,149.4,WeatherDisplay:10.37,2013-04-08 12:13:00,
2013-04-08 08:18:00,44.4,34.9,29.99,NE,42,2.4,3.5,69,0.00,BKN,,0.00,236.7,WeatherDisplay:10.37,2013-04-08 12:18:00,
2013-04-08 08:23:00,45.0,35.4,29.99,ENE,60,0.9,1.3,69,0.00,BKN,,0.00,287.2,WeatherDisplay:10.37,2013-04-08 12:23:00,
2013-04-08 08:28:00,45.7,35.7,29.99,NE,47,0.6,2.3,68,0.00,BKN,,0.00,295.6,WeatherDisplay:10.37,2013-04-08 12:28:00,
2013-04-08 08:34:00,46.0,35.3,29.99,East,94,1.8,3.5,66,0.00,BKN,,0.00,424.0,WeatherDisplay:10.37,2013-04-08 12:34:00,
2013-04-08 08:39:00,46.4,34.9,29.99,ENE,60,1.4,3.5,64,0.00,BKN,,0.00,431.3,WeatherDisplay:10.37,2013-04-08 12:39:00,
2013-04-08 08:44:00,47.3,35.3,29.98,East,84,0.4,3.5,63,0.00,BKN,,0.00,465.0,WeatherDisplay:10.37,2013-04-08 12:44:00,
2013-04-08 08:49:00,48.0,36.0,29.99,NE,36,0.2,1.1,63,0.00,BKN,,0.00,475.5,WeatherDisplay:10.37,2013-04-08 12:49:00,
2013-04-08 08:55:00,48.4,35.5,29.99,NNE,18,0.9,3.5,61,0.00,BKN,,0.00,479.7,WeatherDisplay:10.37,2013-04-08 12:55:00,
2013-04-08 09:00:00,48.4,35.5,29.98,ESE,114,0.5,2.3,61,0.00,BKN,,0.00,467.1,WeatherDisplay:10.37,2013-04-08 13:00:00,
2013-04-08 09:05:00,49.6,35.9,29.98,NE,44,1.5,3.5,59,0.00,BKN,,0.00,521.8,WeatherDisplay:10.37,2013-04-08 13:05:00,
2013-04-08 09:10:00,48.4,35.1,29.98,NE,39,1.0,3.0,60,0.00,BKN,,0.00,547.0,WeatherDisplay:10.37,2013-04-08 13:10:00,
2013-04-08 09:15:00,48.9,35.6,29.98,NNE,33,0.1,1.3,60,0.00,BKN,,0.00,418.7,WeatherDisplay:10.37,2013-04-08 13:15:00,
2013-04-08 09:20:00,50.2,36.0,29.98,NE,52,1.8,3.5,58,0.00,BKN,,0.00,449.2,WeatherDisplay:10.37,2013-04-08 13:20:00,
2013-04-08 09:25:00,50.2,35.5,29.98,NE,42,2.4,4.6,57,0.00,BKN,,0.00,454.5,WeatherDisplay:10.37,2013-04-08 13:25:00,
2013-04-08 09:30:00,50.5,35.9,29.98,SSW,210,1.6,4.6,57,0.00,BKN,,0.00,223.0,WeatherDisplay:10.37,2013-04-08 13:30:00,
2013-04-08 09:35:00,49.6,34.6,29.98,East,96,2.6,6.9,56,0.00,BKN,,0.00,164.1,WeatherDisplay:10.37,2013-04-08 13:35:00,
2013-04-08 09:40:00,50.4,36.1,29.98,NE,42,2.2,3.5,58,0.00,BKN,,0.00,164.1,WeatherDisplay:10.37,2013-04-08 13:40:00,
2013-04-08 09:45:00,50.7,36.5,29.98,NNE,22,2.9,4.6,58,0.00,BKN,,0.00,162.0,WeatherDisplay:10.37,2013-04-08 13:45:00,
2013-04-08 09:50:00,50.7,35.6,29.98,SSE,163,1.8,4.6,56,0.00,BKN,,0.00,199.9,WeatherDisplay:10.37,2013-04-08 13:50:00,
2013-04-08 09:55:00,50.2,36.4,29.98,NE,51,1.6,3.1,59,0.00,BKN,,0.00,295.6,WeatherDisplay:10.37,2013-04-08 13:55:00,
2013-04-08 10:00:00,49.6,35.5,29.98,East,80,3.6,4.6,58,0.00,BKN,,0.00,659.6,WeatherDisplay:10.37,2013-04-08 14:00:00,
2013-04-08 10:05:00,50.5,36.3,29.97,ENE,66,2.4,5.8,58,0.00,BKN,,0.00,673.3,WeatherDisplay:10.37,2013-04-08 14:05:00,
2013-04-08 10:10:00,50.5,36.3,29.96,ENE,57,2.0,5.8,58,0.00,BKN,,0.00,677.5,WeatherDisplay:10.37,2013-04-08 14:10:00,
2013-04-08 10:15:00,51.6,37.3,29.96,NE,44,3.0,5.8,58,0.00,BKN,,0.00,675.4,WeatherDisplay:10.37,2013-04-08 14:15:00,
2013-04-08 10:20:00,50.9,36.2,29.96,East,80,3.7,9.2,57,0.00,BKN,,0.00,696.4,WeatherDisplay:10.37,2013-04-08 14:20:00,
2013-04-08 10:25:00,51.8,36.6,29.96,SSE,154,3.2,6.9,56,0.00,BKN,,0.00,703.8,WeatherDisplay:10.37,2013-04-08 14:25:00,
2013-04-08 10:30:00,50.4,35.2,29.97,ESE,113,4.5,9.2,56,0.00,BKN,,0.00,703.8,WeatherDisplay:10.37,2013-04-08 14:30:00,
2013-04-08 10:35:00,51.6,37.3,29.97,SE,135,3.6,6.4,58,0.00,BKN,,0.00,709.0,WeatherDisplay:10.37,2013-04-08 14:35:00,
2013-04-08 10:41:00,52.9,37.6,29.97,North,349,1.7,6.9,56,0.00,BKN,,0.00,714.3,WeatherDisplay:10.37,2013-04-08 14:41:00,
2013-04-08 10:46:00,52.3,36.6,29.96,NNW,343,3.0,8.1,55,0.00,BKN,,0.00,726.9,WeatherDisplay:10.37,2013-04-08 14:46:00,
2013-04-08 10:51:00,52.9,37.6,29.96,ENE,60,1.7,5.8,56,0.00,BKN,,0.00,739.6,WeatherDisplay:10.37,2013-04-08 14:51:00,
2013-04-08 10:56:00,53.8,36.6,29.96,SSE,164,5.6,8.1,52,0.00,BKN,,0.00,744.8,WeatherDisplay:10.37,2013-04-08 14:56:00,
2013-04-08 11:01:00,53.1,36.8,29.96,NE,35,4.5,8.1,54,0.00,BKN,,0.00,729.0,WeatherDisplay:10.37,2013-04-08 15:01:00,
2013-04-08 11:06:00,53.8,38.0,29.95,East,86,2.4,5.8,55,0.00,BKN,,0.00,783.7,WeatherDisplay:10.37,2013-04-08 15:06:00,
2013-04-08 11:11:00,53.2,36.5,29.95,NE,50,2.7,8.1,53,0.00,BKN,,0.00,616.5,WeatherDisplay:10.37,2013-04-08 15:11:00,
2013-04-08 11:16:00,55.6,39.2,29.95,NNE,21,0.9,4.9,54,0.00,BKN,,0.00,673.3,WeatherDisplay:10.37,2013-04-08 15:16:00,
2013-04-08 11:21:00,56.1,37.7,29.95,NNW,346,2.1,4.6,50,0.00,BKN,,0.00,675.4,WeatherDisplay:10.37,2013-04-08 15:21:00,
2013-04-08 11:26:00,56.3,38.4,29.95,SE,124,1.0,2.5,51,0.00,BKN,,0.00,816.4,WeatherDisplay:10.37,2013-04-08 15:26:00,
2013-04-08 11:31:00,57.7,38.7,29.95,ENE,57,2.6,6.9,49,0.00,BKN,,0.00,472.3,WeatherDisplay:10.37,2013-04-08 15:31:00,
2013-04-08 11:36:00,58.1,38.5,29.95,ENE,68,2.0,4.6,48,0.00,BKN,,0.00,773.2,WeatherDisplay:10.37,2013-04-08 15:36:00,
2013-04-08 11:41:00,57.7,37.6,29.95,NE,49,1.8,4.6,47,0.00,BKN,,0.00,878.4,WeatherDisplay:10.37,2013-04-08 15:41:00,
2013-04-08 11:46:00,57.4,37.8,29.94,NNE,31,0.7,3.5,48,0.00,BKN,,0.00,557.6,WeatherDisplay:10.37,2013-04-08 15:46:00,
2013-04-08 11:51:00,56.7,37.2,29.94,NNE,21,1.4,5.8,48,0.00,BKN,,0.00,374.5,WeatherDisplay:10.37,2013-04-08 15:51:00,
2013-04-08 11:57:00,55.9,37.6,29.93,ENE,62,3.3,3.7,50,0.00,BKN,,0.00,441.8,WeatherDisplay:10.37,2013-04-08 15:57:00,
2013-04-08 12:02:00,55.9,38.1,29.94,NE,56,4.9,8.1,51,0.00,BKN,,0.00,652.2,WeatherDisplay:10.37,2013-04-08 16:02:00,
2013-04-08 12:07:00,56.5,38.1,29.95,ENE,60,1.6,3.5,50,0.00,BKN,,0.00,609.1,WeatherDisplay:10.37,2013-04-08 16:07:00,
2013-04-08 12:12:00,57.9,39.4,29.94,NE,55,2.5,6.9,50,0.00,BKN,,0.00,621.7,WeatherDisplay:10.37,2013-04-08 16:12:00,
2013-04-08 12:17:00,58.8,39.7,29.93,NE,38,2.4,5.8,49,0.00,BKN,,0.00,698.5,WeatherDisplay:10.37,2013-04-08 16:17:00,
2013-04-08 12:22:00,59.0,37.7,29.93,North,4,2.0,3.5,45,0.00,BKN,,0.00,852.1,WeatherDisplay:10.37,2013-04-08 16:22:00,
2013-04-08 12:27:00,59.7,38.3,29.93,East,91,1.9,5.8,45,0.00,BKN,,0.00,819.5,WeatherDisplay:10.37,2013-04-08 16:27:00,
2013-04-08 12:32:00,61.2,39.1,29.93,NE,46,3.5,4.6,44,0.00,BKN,,0.00,824.8,WeatherDisplay:10.37,2013-04-08 16:32:00,
2013-04-08 12:37:00,60.8,39.3,29.92,SSE,153,2.4,8.1,45,0.00,BKN,,0.00,814.2,WeatherDisplay:10.37,2013-04-08 16:37:00,
2013-04-08 12:42:00,61.3,39.8,29.92,ENE,59,2.3,5.8,45,0.00,BKN,,0.00,805.8,WeatherDisplay:10.37,2013-04-08 16:42:00,
2013-04-08 12:47:00,62.1,39.9,29.93,NE,42,1.4,3.5,44,0.00,BKN,,0.00,816.4,WeatherDisplay:10.37,2013-04-08 16:47:00,
2013-04-08 12:52:00,61.5,37.6,29.92,South,181,2.3,8.1,41,0.00,BKN,,0.00,814.2,WeatherDisplay:10.37,2013-04-08 16:52:00,
2013-04-08 12:57:00,61.0,37.7,29.92,SSW,197,6.2,10.4,42,0.00,BKN,,0.00,814.2,WeatherDisplay:10.37,2013-04-08 16:57:00,
2013-04-08 13:02:00,59.7,38.9,29.92,NNW,331,1.6,8.1,46,0.00,BKN,,0.00,811.1,WeatherDisplay:10.37,2013-04-08 17:02:00,
2013-04-08 13:07:00,61.0,40.0,29.92,North,354,1.6,2.5,46,0.00,BKN,,0.00,814.2,WeatherDisplay:10.37,2013-04-08 17:07:00,
2013-04-08 13:12:00,62.6,39.8,29.91,ENE,75,6.0,9.2,43,0.00,BKN,,0.00,819.5,WeatherDisplay:10.37,2013-04-08 17:12:00,
2013-04-08 13:17:00,63.3,40.4,29.91,SSE,156,0.7,4.6,43,0.00,BKN,,0.00,821.6,WeatherDisplay:10.37,2013-04-08 17:17:00,
2013-04-08 13:22:00,64.0,39.8,29.91,NE,41,5.6,7.2,41,0.00,BKN,,0.00,821.6,WeatherDisplay:10.37,2013-04-08 17:22:00,
2013-04-08 13:28:00,63.7,38.9,29.90,ENE,72,2.4,4.8,40,0.00,BKN,,0.00,829.0,WeatherDisplay:10.37,2013-04-08 17:28:00,
2013-04-08 13:33:00,64.0,39.8,29.90,NE,35,1.5,2.3,41,0.00,BKN,,0.00,785.8,WeatherDisplay:10.37,2013-04-08 17:33:00,
2013-04-08 13:38:00,64.0,37.9,29.89,SSE,147,6.7,10.4,38,0.00,BKN,,0.00,837.4,WeatherDisplay:10.37,2013-04-08 17:38:00,
2013-04-08 13:43:00,64.0,39.2,29.89,East,83,2.4,6.9,40,0.00,BKN,,0.00,780.6,WeatherDisplay:10.37,2013-04-08 17:43:00,
2013-04-08 13:48:00,64.2,38.7,29.89,SE,143,3.2,6.9,39,0.00,BKN,,0.00,791.1,WeatherDisplay:10.37,2013-04-08 17:48:00,
2013-04-08 13:53:00,64.9,38.7,29.88,SSE,158,3.1,8.1,38,0.00,BKN,,0.00,829.0,WeatherDisplay:10.37,2013-04-08 17:53:00,
2013-04-08 13:58:00,64.2,38.1,29.88,SE,143,5.5,9.2,38,0.00,BKN,,0.00,685.9,WeatherDisplay:10.37,2013-04-08 17:58:00,
2013-04-08 14:03:00,64.2,40.0,29.88,NE,43,4.8,6.9,41,0.00,BKN,,0.00,547.0,WeatherDisplay:10.37,2013-04-08 18:03:00,
2013-04-08 14:08:00,64.0,39.2,29.88,NE,37,3.9,5.8,40,0.00,BKN,,0.00,564.9,WeatherDisplay:10.37,2013-04-08 18:08:00,
2013-04-08 14:13:00,64.6,39.7,29.88,East,93,2.7,4.1,40,0.00,BKN,,0.00,621.7,WeatherDisplay:10.37,2013-04-08 18:13:00,
2013-04-08 14:18:00,63.3,37.9,29.87,SSE,160,4.2,6.9,39,0.00,BKN,,0.00,593.3,WeatherDisplay:10.37,2013-04-08 18:18:00,
2013-04-08 14:23:00,63.7,40.1,29.87,NE,53,2.5,5.8,42,0.00,BKN,,0.00,488.1,WeatherDisplay:10.37,2013-04-08 18:23:00,
2013-04-08 14:28:00,63.9,39.7,29.87,NNE,28,6.5,8.1,41,0.00,BKN,,0.00,456.6,WeatherDisplay:10.37,2013-04-08 18:28:00,
2013-04-08 14:33:00,63.7,40.1,29.87,NE,52,3.3,6.9,42,0.00,BKN,,0.00,424.0,WeatherDisplay:10.37,2013-04-08 18:33:00,
2013-04-08 14:38:00,63.3,39.8,29.86,ENE,65,1.3,4.6,42,0.00,BKN,,0.00,411.3,WeatherDisplay:10.37,2013-04-08 18:38:00,
2013-04-08 14:43:00,63.3,39.2,29.85,ENE,64,2.7,4.6,41,0.00,BKN,,0.00,420.8,WeatherDisplay:10.37,2013-04-08 18:43:00,
2013-04-08 14:48:00,63.3,39.8,29.85,ENE,59,3.0,6.1,42,0.00,BKN,,0.00,418.7,WeatherDisplay:10.37,2013-04-08 18:48:00,
2013-04-08 14:53:00,63.7,39.5,29.85,ENE,59,3.3,5.8,41,0.00,BKN,,0.00,443.9,WeatherDisplay:10.37,2013-04-08 18:53:00,
2013-04-08 14:58:00,64.0,39.8,29.85,SSE,147,2.3,5.8,41,0.00,BKN,,0.00,454.5,WeatherDisplay:10.37,2013-04-08 18:58:00,
2013-04-08 15:03:00,64.0,39.8,29.84,NE,37,5.2,6.9,41,0.00,OVC,BKN,0.00,392.4,WeatherDisplay:10.37,2013-04-08 19:03:00,
2013-04-08 15:08:00,64.2,40.0,29.84,East,87,3.5,5.8,41,0.00,OVC,BKN,0.00,308.2,WeatherDisplay:10.37,2013-04-08 19:08:00,
2013-04-08 15:13:00,63.9,39.1,29.83,NNE,29,4.1,7.9,40,0.00,OVC,BKN,0.00,256.7,WeatherDisplay:10.37,2013-04-08 19:13:00,
2013-04-08 15:18:00,63.5,40.0,29.83,NNE,29,2.1,3.5,42,0.00,OVC,BKN,0.00,274.6,WeatherDisplay:10.37,2013-04-08 19:18:00,
2013-04-08 15:23:00,63.3,40.4,29.83,ENE,69,3.4,4.6,43,0.00,OVC,BKN,0.00,246.2,WeatherDisplay:10.37,2013-04-08 19:23:00,
2013-04-08 15:28:00,62.8,39.9,29.82,NE,38,2.5,5.8,43,0.00,OVC,BKN,0.00,195.7,WeatherDisplay:10.37,2013-04-08 19:28:00,
2013-04-08 15:33:00,62.4,40.2,29.81,NE,46,7.3,9.2,44,0.00,OVC,BKN,0.00,167.3,WeatherDisplay:10.37,2013-04-08 19:33:00,
2013-04-08 15:38:00,62.2,39.5,29.81,NE,36,2.9,6.2,43,0.00,OVC,BKN,0.00,135.7,WeatherDisplay:10.37,2013-04-08 19:38:00,
2013-04-08 15:43:00,61.7,39.0,29.81,NE,56,5.0,8.1,43,0.00,OVC,BKN,0.00,149.4,WeatherDisplay:10.37,2013-04-08 19:43:00,
2013-04-08 15:48:00,61.7,39.6,29.80,NE,47,3.2,5.8,44,0.00,OVC,BKN,0.00,199.9,WeatherDisplay:10.37,2013-04-08 19:48:00,
2013-04-08 15:53:00,61.9,39.7,29.80,NNE,21,3.3,8.1,44,0.00,OVC,BKN,0.00,274.6,WeatherDisplay:10.37,2013-04-08 19:53:00,
2013-04-08 15:58:00,62.4,40.2,29.80,NNE,28,4.5,8.7,44,0.00,OVC,BKN,0.00,290.4,WeatherDisplay:10.37,2013-04-08 19:58:00,
2013-04-08 16:03:00,62.8,39.3,29.80,NNE,33,3.2,8.1,42,0.00,OVC,BKN,0.00,233.5,WeatherDisplay:10.37,2013-04-08 20:03:00,
2013-04-08 16:08:00,62.4,39.6,29.79,NNE,22,3.5,5.8,43,0.00,OVC,BKN,0.00,223.0,WeatherDisplay:10.37,2013-04-08 20:08:00,
2013-04-08 16:13:00,62.2,39.5,29.78,NE,44,5.6,9.2,43,0.00,OVC,BKN,0.00,297.7,WeatherDisplay:10.37,2013-04-08 20:13:00,
2013-04-08 16:18:00,62.2,40.0,29.78,NE,56,9.0,11.5,44,0.00,OVC,BKN,0.00,308.2,WeatherDisplay:10.37,2013-04-08 20:18:00,
2013-04-08 16:23:00,62.8,40.5,29.78,ENE,66,4.2,5.8,44,0.00,OVC,BKN,0.00,251.4,WeatherDisplay:10.37,2013-04-08 20:23:00,
2013-04-08 16:28:00,62.8,39.9,29.78,NE,46,7.8,10.4,43,0.00,OVC,BKN,0.00,156.7,WeatherDisplay:10.37,2013-04-08 20:28:00,
2013-04-08 16:33:00,61.3,39.8,29.79,NE,49,8.2,11.5,45,0.00,OVC,BKN,0.00,130.4,WeatherDisplay:10.37,2013-04-08 20:33:00,
2013-04-08 16:38:00,60.3,39.9,29.78,ENE,64,6.0,9.2,47,0.00,OVC,BKN,0.00,108.4,WeatherDisplay:10.37,2013-04-08 20:38:00,
2013-04-08 16:43:00,59.2,40.0,29.78,NNE,13,6.3,8.1,49,0.00,OVC,BKN,0.00,97.8,WeatherDisplay:10.37,2013-04-08 20:43:00,
2013-04-08 16:48:00,58.6,40.0,29.78,ENE,70,6.1,9.2,50,0.00,OVC,BKN,0.00,105.2,WeatherDisplay:10.37,2013-04-08 20:48:00,
2013-04-08 16:53:00,57.7,40.2,29.79,NE,34,7.7,9.9,52,0.00,OVC,BKN,0.00,103.1,WeatherDisplay:10.37,2013-04-08 20:53:00,
2013-04-08 16:58:00,57.4,42.3,29.79,NE,43,5.3,7.5,57,0.00,OVC,BKN,0.00,97.8,WeatherDisplay:10.37,2013-04-08 20:58:00,
2013-04-08 17:03:00,56.5,42.8,29.78,NE,54,5.1,5.8,60,0.00,-RA,BKN,0.00,103.1,WeatherDisplay:10.37,2013-04-08 21:03:00,
2013-04-08 17:08:00,56.1,43.7,29.79,NE,38,3.7,4.6,63,0.00,-RA,BKN,0.00,128.3,WeatherDisplay:10.37,2013-04-08 21:08:00,
2013-04-08 17:13:00,56.1,44.1,29.78,NE,51,4.1,5.8,64,0.00,-RA,BKN,0.00,64.2,WeatherDisplay:10.37,2013-04-08 21:13:00,
2013-04-08 17:18:00,55.9,43.9,29.78,NE,41,2.9,4.6,64,0.00,-RA,BKN,0.00,71.5,WeatherDisplay:10.37,2013-04-08 21:18:00,
2013-04-08 17:23:00,55.6,44.0,29.78,NE,43,4.9,6.1,65,0.00,-RA,BKN,0.00,121.0,WeatherDisplay:10.37,2013-04-08 21:23:00,
2013-04-08 17:28:00,55.4,43.4,29.77,NE,38,4.9,6.9,64,0.00,-RA,BKN,0.00,254.6,WeatherDisplay:10.37,2013-04-08 21:28:00,
2013-04-08 17:33:00,55.6,44.0,29.76,NE,44,7.9,10.4,65,0.00,-RA,BKN,0.00,495.5,WeatherDisplay:10.37,2013-04-08 21:33:00,
2013-04-08 17:38:00,56.1,44.9,29.76,NE,51,5.6,9.2,66,0.00,-RA,BKN,0.00,179.9,WeatherDisplay:10.37,2013-04-08 21:38:00,
2013-04-08 17:43:00,55.9,43.9,29.76,NE,51,6.0,6.9,64,0.00,-RA,BKN,0.00,58.9,WeatherDisplay:10.37,2013-04-08 21:43:00,
2013-04-08 17:48:00,55.6,43.6,29.76,NE,34,6.1,6.9,64,0.00,-RA,BKN,0.00,35.8,WeatherDisplay:10.37,2013-04-08 21:48:00,
2013-04-08 17:53:00,55.2,42.8,29.75,NE,51,6.4,8.6,63,0.00,-RA,BKN,0.00,46.3,WeatherDisplay:10.37,2013-04-08 21:53:00,
2013-04-08 17:58:00,55.2,42.8,29.75,NE,52,3.7,6.1,63,0.00,-RA,BKN,0.00,82.1,WeatherDisplay:10.37,2013-04-08 21:58:00,
2013-04-08 18:03:00,55.2,42.8,29.74,NE,45,5.7,6.9,63,0.00,-RA,BKN,0.00,126.2,WeatherDisplay:10.37,2013-04-08 22:03:00,
2013-04-08 18:08:00,55.2,43.2,29.74,NE,40,5.4,5.8,64,0.00,-RA,BKN,0.00,80.0,WeatherDisplay:10.37,2013-04-08 22:08:00,
2013-04-08 18:13:00,54.9,42.5,29.74,ENE,60,6.0,10.4,63,0.00,-RA,BKN,0.00,41.0,WeatherDisplay:10.37,2013-04-08 22:13:00,
2013-04-08 18:19:00,54.7,42.7,29.73,ENE,58,5.5,8.1,64,0.00,-RA,BKN,0.00,30.5,WeatherDisplay:10.37,2013-04-08 22:19:00,
2013-04-08 18:24:00,54.3,42.4,29.73,NE,52,5.8,6.9,64,0.00,-RA,BKN,0.00,10.5,WeatherDisplay:10.37,2013-04-08 22:24:00,
2013-04-08 18:29:00,54.1,41.8,29.74,ENE,65,6.8,9.2,63,0.00,-RA,BKN,0.00,5.3,WeatherDisplay:10.37,2013-04-08 22:29:00,
2013-04-08 18:34:00,54.1,42.2,29.74,NNE,27,2.5,4.1,64,0.00,-RA,BKN,0.00,12.6,WeatherDisplay:10.37,2013-04-08 22:34:00,
2013-04-08 18:39:00,54.1,42.2,29.75,NNE,29,2.9,4.6,64,0.00,-RA,BKN,0.00,10.5,WeatherDisplay:10.37,2013-04-08 22:39:00,
2013-04-08 18:44:00,53.8,43.1,29.76,NNW,348,2.8,4.6,67,0.00,-RA,BKN,0.00,12.6,WeatherDisplay:10.37,2013-04-08 22:44:00,
2013-04-08 18:49:00,52.7,43.6,29.77,NNW,333,5.5,9.2,71,0.01,-RA,BKN,0.01,10.5,WeatherDisplay:10.37,2013-04-08 22:49:00,
2013-04-08 18:54:00,51.4,42.7,29.77,NW,323,4.8,8.1,72,0.01,-RA,BKN,0.01,5.3,WeatherDisplay:10.37,2013-04-08 22:54:00,
2013-04-08 18:59:00,50.7,42.4,29.77,NNE,17,2.2,4.6,73,0.01,-RA,BKN,0.01,7.4,WeatherDisplay:10.37,2013-04-08 22:59:00,
2013-04-08 19:04:00,50.2,42.2,29.76,NNE,22,4.1,6.0,74,0.01,-RA,BKN,0.01,5.3,WeatherDisplay:10.37,2013-04-08 23:04:00,
2013-04-08 19:09:00,49.6,42.4,29.76,NNE,28,4.7,6.0,76,0.01,-RA,BKN,0.01,5.3,WeatherDisplay:10.37,2013-04-08 23:09:00,
2013-04-08 19:14:00,48.7,42.2,29.76,NNE,24,7.1,7.1,78,0.02,-RA,BKN,0.02,2.1,WeatherDisplay:10.37,2013-04-08 23:14:00,
2013-04-08 19:20:00,48.0,42.1,29.75,NE,46,5.7,8.1,80,0.02,-RA,BKN,0.02,2.1,WeatherDisplay:10.37,2013-04-08 23:20:00,
2013-04-08 19:25:00,47.7,42.1,29.75,NNE,25,5.6,9.2,81,0.02,-RA,BKN,0.02,2.1,WeatherDisplay:10.37,2013-04-08 23:25:00,
2013-04-08 19:30:00,47.3,42.1,29.74,NNE,15,6.6,10.4,82,0.02,-RA,BKN,0.02,2.1,WeatherDisplay:10.37,2013-04-08 23:30:00,
2013-04-08 19:35:00,46.8,41.9,29.75,NE,36,4.1,5.8,83,0.02,-RA,BKN,0.02,0.0,WeatherDisplay:10.37,2013-04-08 23:35:00,
2013-04-08 19:40:00,46.9,42.0,29.76,North,7,2.1,4.6,83,0.02,-RA,BKN,0.02,2.1,WeatherDisplay:10.37,2013-04-08 23:40:00,
2013-04-08 19:45:00,46.6,42.0,29.73,NNE,33,6.5,8.1,84,0.02,-RA,BKN,0.02,0.0,WeatherDisplay:10.37,2013-04-08 23:45:00,
2013-04-08 19:50:00,46.2,41.7,29.73,NNE,29,5.3,8.9,84,0.01,-RA,BKN,0.02,2.1,WeatherDisplay:10.37,2013-04-08 23:50:00,
2013-04-08 19:55:00,46.0,41.8,29.72,ENE,67,3.3,6.9,85,0.02,-RA,BKN,0.03,0.0,WeatherDisplay:10.37,2013-04-08 23:55:00,
2013-04-08 20:00:00,46.0,42.1,29.72,NE,34,3.3,5.2,86,0.02,-RA,BKN,0.03,0.0,WeatherDisplay:10.37,2013-04-09 00:00:00,
2013-04-08 20:05:00,46.2,42.3,29.72,ENE,63,1.8,4.6,86,0.02,-RA,BKN,0.03,0.0,WeatherDisplay:10.37,2013-04-09 00:05:00,
2013-04-08 20:10:00,46.2,42.3,29.70,ENE,68,3.1,5.8,86,0.02,-RA,BKN,0.03,0.0,WeatherDisplay:10.37,2013-04-09 00:10:00,
2013-04-08 20:15:00,46.4,42.4,29.70,NE,44,1.7,2.3,86,0.01,-RA,BKN,0.03,0.0,WeatherDisplay:10.37,2013-04-09 00:15:00,
2013-04-08 20:20:00,46.8,42.8,29.70,NE,52,1.3,3.1,86,0.01,-RA,BKN,0.03,0.0,WeatherDisplay:10.37,2013-04-09 00:20:00,
2013-04-08 20:25:00,46.9,43.0,29.69,NNE,21,0.3,2.3,86,0.01,-RA,BKN,0.03,0.0,WeatherDisplay:10.37,2013-04-09 00:25:00,
2013-04-08 20:30:00,47.1,43.1,29.69,SSE,162,1.7,4.6,86,0.01,-RA,BKN,0.03,0.0,WeatherDisplay:10.37,2013-04-09 00:30:00,
2013-04-08 20:35:00,47.3,43.0,29.69,NE,51,1.4,2.3,85,0.01,-RA,BKN,0.03,0.0,WeatherDisplay:10.37,2013-04-09 00:35:00,
2013-04-08 20:40:00,47.5,43.5,29.69,NE,34,1.4,5.8,86,0.01,-RA,BKN,0.03,0.0,WeatherDisplay:10.37,2013-04-09 00:40:00,
2013-04-08 20:45:00,47.7,43.7,29.69,NE,53,0.8,3.6,86,0.01,-RA,BKN,0.03,0.0,WeatherDisplay:10.37,2013-04-09 00:45:00,
2013-04-08 20:50:00,47.8,43.5,29.69,North,8,1.1,4.6,85,0.01,-RA,BKN,0.03,0.0,WeatherDisplay:10.37,2013-04-09 00:50:00,
2013-04-08 20:55:00,48.2,43.9,29.70,NNE,13,0.6,2.3,85,0.00,-RA,BKN,0.03,0.0,WeatherDisplay:10.37,2013-04-09 00:55:00,
2013-04-08 21:00:00,47.3,43.3,29.74,NW,309,11.2,15.0,86,0.00,-RA,BKN,0.03,0.0,WeatherDisplay:10.37,2013-04-09 01:00:00,
2013-04-08 21:05:00,47.1,43.1,29.72,ENE,57,2.3,11.5,86,0.00,-RA,BKN,0.03,0.0,WeatherDisplay:10.37,2013-04-09 01:05:00,
2013-04-08 21:10:00,47.1,43.4,29.72,SSW,198,1.3,4.6,87,0.00,-RA,BKN,0.03,0.0,WeatherDisplay:10.37,2013-04-09 01:10:00,
2013-04-08 21:15:00,47.1,43.7,29.72,North,354,1.9,4.6,88,0.00,-RA,BKN,0.03,0.0,WeatherDisplay:10.37,2013-04-09 01:15:00,
2013-04-08 21:20:00,47.1,43.4,29.70,NE,42,4.7,6.9,87,0.00,-RA,BKN,0.03,0.0,WeatherDisplay:10.37,2013-04-09 01:20:00,
2013-04-08 21:25:00,46.9,43.3,29.72,NNE,22,0.5,2.3,87,0.00,-RA,BKN,0.03,0.0,WeatherDisplay:10.37,2013-04-09 01:25:00,
2013-04-08 21:30:00,47.1,43.4,29.71,NNE,17,1.0,3.5,87,0.00,-RA,BKN,0.03,0.0,WeatherDisplay:10.37,2013-04-09 01:30:00,
2013-04-08 21:35:00,47.1,43.4,29.71,NNW,341,0.1,1.1,87,0.00,-RA,BKN,0.03,0.0,WeatherDisplay:10.37,2013-04-09 01:35:00,
2013-04-08 21:40:00,46.9,43.3,29.70,ENE,58,1.3,2.9,87,0.00,-RA,BKN,0.03,0.0,WeatherDisplay:10.37,2013-04-09 01:40:00,
2013-04-08 21:45:00,46.9,43.3,29.70,NE,40,3.5,4.6,87,0.00,-RA,BKN,0.03,0.0,WeatherDisplay:10.37,2013-04-09 01:45:00,
2013-04-08 21:50:00,46.8,43.4,29.69,NE,50,3.3,4.6,88,0.00,-RA,BKN,0.03,0.0,WeatherDisplay:10.37,2013-04-09 01:50:00,
2013-04-08 21:55:00,46.6,43.5,29.69,ENE,59,2.1,3.5,89,0.00,-RA,BKN,0.03,0.0,WeatherDisplay:10.37,2013-04-09 01:55:00,
2013-04-08 22:00:00,46.6,43.5,29.68,NNE,17,0.3,2.3,89,0.00,-RA,BKN,0.03,0.0,WeatherDisplay:10.37,2013-04-09 02:00:00,
2013-04-08 22:05:00,46.9,43.9,29.68,South,174,0.0,2.3,89,0.00,OVC,BKN,0.03,0.0,WeatherDisplay:10.37,2013-04-09 02:05:00,
2013-04-08 22:11:00,47.1,43.7,29.67,NNE,12,0.1,0.0,88,0.00,OVC,BKN,0.03,0.0,WeatherDisplay:10.37,2013-04-09 02:11:00,
2013-04-08 22:16:00,47.3,43.9,29.67,North,7,0.0,1.1,88,0.00,OVC,BKN,0.03,0.0,WeatherDisplay:10.37,2013-04-09 02:16:00,
2013-04-08 22:21:00,47.3,43.9,29.67,SSE,153,0.8,2.1,88,0.00,OVC,BKN,0.03,0.0,WeatherDisplay:10.37,2013-04-09 02:21:00,
2013-04-08 22:26:00,47.5,44.1,29.67,ENE,68,0.8,3.5,88,0.00,OVC,BKN,0.03,0.0,WeatherDisplay:10.37,2013-04-09 02:26:00,
2013-04-08 22:31:00,47.5,44.1,29.67,ENE,78,0.3,4.6,88,0.00,OVC,BKN,0.03,0.0,WeatherDisplay:10.37,2013-04-09 02:31:00,
2013-04-08 22:36:00,47.8,44.5,29.66,SSW,192,1.1,1.4,88,0.00,OVC,BKN,0.03,0.0,WeatherDisplay:10.37,2013-04-09 02:36:00,
2013-04-08 22:41:00,47.8,44.5,29.67,ENE,78,3.0,5.8,88,0.00,OVC,BKN,0.03,0.0,WeatherDisplay:10.37,2013-04-09 02:41:00,
2013-04-08 22:46:00,47.8,44.2,29.66,SSE,151,5.2,8.1,87,0.00,OVC,BKN,0.03,0.0,WeatherDisplay:10.37,2013-04-09 02:46:00,
2013-04-08 22:51:00,48.2,44.5,29.66,SE,146,2.0,6.9,87,0.00,BKN,,0.03,0.0,WeatherDisplay:10.37,2013-04-09 02:51:00,
2013-04-08 22:56:00,48.4,44.7,29.66,SE,132,2.6,6.9,87,0.00,BKN,,0.03,0.0,WeatherDisplay:10.37,2013-04-09 02:56:00,
2013-04-08 23:01:00,48.7,44.7,29.65,East,98,1.2,3.5,86,0.00,BKN,,0.03,0.0,WeatherDisplay:10.37,2013-04-09 03:01:00,
2013-04-08 23:06:00,49.3,45.6,29.66,ESE,119,1.8,4.6,87,0.00,BKN,,0.03,0.0,WeatherDisplay:10.37,2013-04-09 03:06:00,
2013-04-08 23:11:00,50.5,46.8,29.66,SSE,158,3.0,6.9,87,0.00,BKN,,0.03,0.0,WeatherDisplay:10.37,2013-04-09 03:11:00,
2013-04-08 23:16:00,53.2,48.8,29.65,South,179,4.6,6.9,85,0.00,BKN,,0.03,0.0,WeatherDisplay:10.37,2013-04-09 03:16:00,
2013-04-08 23:21:00,57.0,49.9,29.65,South,175,6.7,8.1,77,0.00,BKN,,0.03,0.0,WeatherDisplay:10.37,2013-04-09 03:21:00,
2013-04-08 23:26:00,61.0,50.3,29.64,SSW,197,8.3,10.7,68,0.00,BKN,,0.03,0.0,WeatherDisplay:10.37,2013-04-09 03:26:00,
2013-04-08 23:31:00,62.8,50.4,29.64,SSW,208,6.7,10.4,64,0.00,BKN,,0.03,0.0,WeatherDisplay:10.37,2013-04-09 03:31:00,
2013-04-08 23:36:00,63.7,50.0,29.64,South,182,7.2,10.4,61,0.00,BKN,,0.03,0.0,WeatherDisplay:10.37,2013-04-09 03:36:00,
2013-04-08 23:41:00,64.6,49.9,29.64,SSW,208,8.1,13.8,59,0.00,BKN,,0.03,0.0,WeatherDisplay:10.37,2013-04-09 03:41:00,
2013-04-08 23:46:00,64.6,49.9,29.63,SSW,198,8.2,14.0,59,0.00,BKN,,0.03,0.0,WeatherDisplay:10.37,2013-04-09 03:46:00,
2013-04-08 23:51:00,65.3,50.1,29.63,SW,214,8.5,11.5,58,0.00,BKN,,0.03,0.0,WeatherDisplay:10.37,2013-04-09 03:51:00,
2013-04-08 23:56:00,65.5,49.8,29.62,SW,217,9.0,20.7,57,0.00,BKN,,0.03,0.0,WeatherDisplay:10.37,2013-04-09 03:56:00,